Date String (YYYY-MM-DD hh:mm:ss) UTC,Instrument flags,Ambient pressure (hPa),Sample flow (lpm),Bypass flow (lpm),Sample temperature (°C),Ambient temperature (°C),ASC tube jacket temperature (°C),LED temperature (°C),Box temperature (°C),Sample RH (%),Span deviation,Mass concentration (μg/m³),Mass concentration (μg/m³),Mass concentration (μg/m³)
DateTimeUTC,F1_M11,P_M11,Q1_M11,Q2_M11,T1_M11,T2_M11,T3_M11,T4_M11,T5_M11,U1_M11,ZSPAN_M11,X0_M11,X2_M11,X1_M11
2021-08-21 06:00:00,,0828.2,4.99,0.00,29.5,28.0,00.0,38.7,31.2,19.3,0002.6,0023.38,0016.93,0016.16
2021-08-21 06:01:00,,0828.2,5.00,0.00,29.5,28.2,00.0,38.7,31.3,19.3,0002.5,0022.80,0016.83,0016.15
2021-08-21 06:02:00,,0828.3,5.00,0.00,29.5,28.3,00.0,38.7,31.3,19.3,0002.4,0022.58,0016.80,0016.12
2021-08-21 06:03:00,,0828.3,5.01,0.00,29.5,28.3,00.0,38.7,31.3,19.3,0002.4,0022.64,0016.80,0016.12
2021-08-21 06:04:00,,0828.3,4.99,0.00,29.5,28.4,00.0,38.7,31.3,19.3,0002.6,0023.18,0016.81,0016.13
2021-08-21 06:05:00,,0828.3,5.01,0.00,29.5,28.5,00.0,38.7,31.3,19.3,0002.7,0022.82,0016.80,0016.15
2021-08-21 06:06:00,,0828.3,5.01,0.00,29.5,28.5,00.0,38.7,31.3,19.3,0002.7,0023.49,0016.77,0016.12
2021-08-21 06:07:00,,0828.3,4.98,0.00,29.5,28.6,00.0,38.7,31.3,19.3,0002.7,0023.50,0016.68,0016.09
2021-08-21 06:08:00,,0828.4,5.01,0.00,29.6,28.6,00.0,38.7,31.3,19.3,0002.8,0023.40,0016.64,0016.10
2021-08-21 06:09:00,,0828.4,5.00,0.00,29.6,28.6,00.0,38.7,31.4,19.3,0002.9,0023.82,0016.65,0016.09
2021-08-21 06:10:00,,0828.5,5.00,0.00,29.6,28.7,00.0,38.7,31.4,19.3,0003.0,0024.09,0016.71,0016.10
2021-08-21 06:11:00,,0828.5,4.99,0.00,29.6,28.7,00.0,38.7,31.4,19.4,0003.1,0024.10,0016.71,0016.12
2021-08-21 06:12:00,,0828.6,5.01,0.00,29.6,28.7,00.0,38.7,31.4,19.4,0003.1,0024.40,0016.76,0016.16
2021-08-21 06:13:00,,0828.9,5.01,0.00,29.7,28.8,00.0,38.8,31.5,19.5,0003.3,0024.73,0016.81,0016.22
2021-08-21 06:14:00,,0829.1,4.99,0.00,29.7,28.8,00.0,38.8,31.5,19.5,0003.3,0024.89,0016.85,0016.24
2021-08-21 06:15:00,,0829.0,5.01,0.00,29.7,28.8,00.0,38.8,31.5,19.7,0003.2,0024.71,0016.88,0016.24
2021-08-21 06:16:00,,0828.8,5.00,0.00,29.7,28.9,00.0,38.8,31.5,19.8,0003.1,0024.12,0016.89,0016.25
2021-08-21 06:17:00,,0829.1,5.00,0.00,29.7,28.9,00.0,38.8,31.6,19.8,0003.1,0023.86,0016.94,0016.26
2021-08-21 06:18:00,,0829.2,4.99,0.00,29.8,28.9,00.0,38.8,31.6,19.8,0003.1,0024.05,0017.00,0016.30
2021-08-21 06:19:00,,0828.7,4.99,0.00,29.8,29.0,00.0,38.8,31.6,20.1,0003.1,0024.04,0017.03,0016.31
2021-08-21 06:20:00,,0828.8,5.01,0.00,29.8,29.0,00.0,38.9,31.7,20.5,0003.0,0024.04,0017.00,0016.30
2021-08-21 06:21:00,,0828.9,5.01,0.00,29.8,29.0,00.0,38.9,31.7,20.6,0003.0,0024.02,0016.97,0016.29
2021-08-21 06:22:00,,0829.4,5.00,0.00,29.8,29.0,00.0,38.9,31.7,20.9,0002.8,0023.99,0016.98,0016.29
2021-08-21 06:23:00,,0829.2,4.99,0.00,29.9,29.1,00.0,38.9,31.7,20.8,0002.9,0024.63,0017.02,0016.31
2021-08-21 06:24:00,,0829.1,5.00,0.00,29.9,29.1,00.0,38.9,31.7,20.3,0002.7,0025.32,0017.10,0016.38
2021-08-21 06:25:00,,0828.9,5.00,0.00,29.9,29.1,00.0,38.9,31.7,20.1,0002.6,0025.33,0017.21,0016.48
2021-08-21 06:26:00,,0829.0,5.01,0.00,29.9,29.1,00.0,39.0,31.7,20.1,0002.6,0025.46,0017.47,0016.74
2021-08-21 06:27:00,,0828.8,5.01,0.00,29.9,29.1,00.0,39.0,31.7,20.5,0002.7,0025.55,0017.60,0016.88
2021-08-21 06:28:00,,0828.9,4.99,0.00,29.9,29.1,00.0,39.0,31.8,20.4,0002.8,0025.37,0017.70,0016.97
2021-08-21 06:29:00,,0828.9,5.00,0.00,30.0,29.2,00.0,39.0,31.7,20.4,0002.7,0025.16,0017.85,0017.12
2021-08-21 06:30:00,,0828.9,4.99,0.00,30.0,29.2,00.0,39.0,31.8,20.4,0002.5,0026.50,0018.07,0017.30
2021-08-21 06:31:00,,0828.9,4.99,0.00,30.0,29.2,00.0,39.0,31.8,20.4,0002.6,0027.26,0018.28,0017.50
2021-08-21 06:32:00,,0828.9,5.00,0.00,30.0,29.2,00.0,39.1,31.8,20.5,0002.6,0027.87,0018.42,0017.66
2021-08-21 06:33:00,,0829.0,4.99,0.00,30.0,29.2,00.0,39.1,31.9,20.5,0002.7,0028.65,0018.61,0017.83
2021-08-21 06:34:00,,0829.0,4.99,0.00,30.0,29.3,00.0,39.1,31.9,20.5,0002.6,0027.96,0018.78,0017.99
2021-08-21 06:35:00,,0829.0,5.00,0.00,30.1,29.3,00.0,39.1,31.9,20.3,0002.7,0027.40,0018.94,0018.15
2021-08-21 06:36:00,,0829.1,5.01,0.00,30.1,29.3,00.0,39.1,31.9,20.6,0002.8,0027.86,0019.05,0018.30
2021-08-21 06:37:00,,0829.2,5.00,0.00,30.1,29.3,00.0,39.1,31.9,20.5,0002.9,0028.11,0019.00,0018.26
2021-08-21 06:38:00,,0829.2,5.01,0.00,30.1,29.3,00.0,39.2,31.9,20.5,0002.8,0028.58,0019.19,0018.42
2021-08-21 06:39:00,,0829.3,4.98,0.00,30.1,29.4,00.0,39.2,31.9,20.5,0002.9,0029.02,0019.37,0018.61
2021-08-21 06:40:00,,0829.2,5.01,0.00,30.1,29.4,00.0,39.2,31.9,20.6,0002.9,0029.47,0019.45,0018.71
2021-08-21 06:41:00,,0829.3,5.00,0.00,30.1,29.4,00.0,39.2,32.0,20.5,0002.9,0029.04,0019.48,0018.77
2021-08-21 06:42:00,,0829.3,5.01,0.00,30.2,29.4,00.0,39.2,32.0,20.5,0002.9,0028.64,0019.55,0018.87
2021-08-21 06:43:00,,0829.3,5.00,0.00,30.2,29.2,00.0,39.2,31.9,20.5,0002.9,0028.69,0019.71,0019.00
2021-08-21 06:44:00,,0829.2,5.00,0.00,30.1,27.2,00.0,39.2,31.3,20.7,0002.8,0028.13,0019.79,0019.10
2021-08-21 06:45:00,,0829.2,5.00,0.00,29.9,26.1,00.0,39.1,31.0,21.0,0002.8,0028.96,0019.88,0019.18
2021-08-21 06:46:00,,0829.2,5.01,0.00,29.8,26.4,00.0,39.1,31.1,21.1,0002.7,0029.40,0019.91,0019.21
2021-08-21 06:47:00,,0829.2,5.00,0.00,29.7,26.8,00.0,39.0,31.1,21.3,0002.4,0029.84,0019.94,0019.21
2021-08-21 06:48:00,,0829.2,5.00,0.00,29.6,27.2,00.0,39.0,31.2,21.4,0002.4,0029.89,0019.94,0019.20
2021-08-21 06:49:00,,0829.2,5.01,0.00,29.6,27.6,00.0,39.0,31.3,21.4,0002.4,0029.68,0019.87,0019.17
2021-08-21 06:50:00,,0829.2,4.99,0.00,29.6,27.8,00.0,38.9,31.3,21.3,0002.4,0030.13,0019.80,0019.11
2021-08-21 06:51:00,,0829.2,5.00,0.00,29.7,28.1,00.0,38.9,31.4,21.3,0002.3,0029.99,0019.76,0019.04
2021-08-21 06:52:00,,0829.2,5.00,0.00,29.7,28.2,00.0,38.9,31.4,21.2,0002.2,0029.67,0019.76,0019.02
2021-08-21 06:53:00,,0829.2,5.00,0.00,29.7,28.4,00.0,38.9,31.4,21.2,0002.3,0029.07,0019.71,0018.95
2021-08-21 06:54:00,,0829.3,5.00,0.00,29.7,28.5,00.0,38.9,31.5,21.2,0002.2,0028.68,0019.65,0018.90
2021-08-21 06:55:00,,0829.3,5.00,0.00,29.7,28.6,00.0,38.9,31.5,21.2,0002.2,0029.04,0019.61,0018.85
2021-08-21 06:56:00,,0829.4,5.01,0.00,29.8,28.7,00.0,38.9,31.5,21.2,0002.2,0028.89,0019.62,0018.84
2021-08-21 06:57:00,,0829.5,4.99,0.00,29.8,28.8,00.0,38.9,31.6,21.1,0002.3,0028.60,0019.62,0018.84
2021-08-21 06:58:00,,0829.5,5.00,0.00,29.8,28.9,00.0,38.9,31.6,21.1,0002.4,0028.18,0019.61,0018.84
2021-08-21 06:59:00,,0829.5,5.00,0.00,29.8,28.9,00.0,38.9,31.7,21.2,0002.4,0027.67,0019.63,0018.86
